Regional Weather Roundup
Issued by NWS Jackson, KY

Home | Current Version | Previous Version | Graphics & Text | Print | Product List | Glossary On
Versions: 1 2 3 4 5 6 7 8 9 10 11 12 13 14 15 16 17 18 19 20 21 22 23 24 25 26 27 28 29 30 31 32 33 34 35 36 37 38 39 40 41 42 43 44 45 46 47 48 49 50
000
ASUS43 KJKL 251711
RWRJKL

EAST KENTUCKY HOURLY WEATHER ROUNDUP
NATIONAL WEATHER SERVICE JACKSON KY
100 PM EDT SAT OCT 25 2014

NOTE: "FAIR" INDICATES FEW OR NO CLOUDS BELOW 12,000 FEET WITH
NO SIGNIFICANT WEATHER AND/OR OBSTRUCTIONS TO VISIBILITY.

* THESE REPORTS ARE NOT UNDER NWS QUALITY CONTROL AND MAY NOT
  REPORT WEATHER SUCH AS PRECIPITATION AND FOG.

KYZ079-080-083-085-087-088-110-112-115-119-120-251800
...EASTERN KENTUCKY...

CITY           SKY/WX    TMP DP  RH WIND       PRES   REMARKS
JACKSON        CLOUDY    63  48  58 VRB3      30.05F
LONDON         CLOUDY    64  49  57 W9        30.07F
SOMERSET*      CLOUDY    61  50  67 S3        30.08F
MONTICELLO*    PTSUNNY   66  53  63 SW7       30.08F
WILLIAMSBURG*  CLOUDY    64  50  59 MISG      30.08
MIDDLESBORO*   SUNNY     62  48  60 CALM      30.08F
HARLAN APT*    SUNNY     64  45  48 SW3       30.08F
HAZARD APT*    CLOUDY    63  48  59 W6        30.06
BLACK MTN*       N/A     59  45  58 NE5         N/A
PIKEVILLE APT* CLOUDY    61  48  63 SW5       30.04F
BIG SANDY*     CLOUDY    61  48  63 SW5       30.04F
MOREHEAD APT*  CLOUDY    59  52  77 SW10      30.04F
$$

KYZ035-036-041-042-044-050-067-078-099-251800
...CENTRAL KENTUCKY...

CITY           SKY/WX    TMP DP  RH WIND       PRES   REMARKS
MT STERLING*   CLOUDY    59  52  77 SW8       30.03F
FLEMING/MASON* CLOUDY    61  52  72 SW9       30.01F
DANVILLE*      CLOUDY    64  52  63 SW7       30.05F
RICHMOND*      CLOUDY    61  52  72 S9        30.04F
LEXINGTON      CLOUDY    64  52  64 SW13      30.03F
FRANKFORT      CLOUDY    65  54  67 SW10      30.01S
$$

KYZ091>093-OHZ055-061-077-WVZ005-015-034-035-042-251800
...SOUTHERN OHIO/WEST VIRGINIA...

CITY           SKY/WX    TMP DP  RH WIND       PRES   REMARKS
COVINGTON      CLOUDY    66  55  67 SW8       29.97F
COLUMBUS       PTSUNNY   64  52  63 SW15      29.90F
DAYTON         MOSUNNY   68  57  68 SW15      29.93F
WILMINGTON     LGT RAIN  63  52  67 SW14      29.94F
HUNTINGTON     CLOUDY    61  49  64 S6        30.01F
CHARLESTON     PTSUNNY   62  47  57 SW9       30.01F
PINEVILLE*     SUNNY     62  47  59 MISG      30.10F
BECKLEY        SUNNY     59  41  51 W8        30.04F
BLUEFIELD      SUNNY     61  42  49 W9        30.06F
$$

VAZ002-007-008-TNZ017-027-036-066-071-251800
...SOUTHWEST VIRGINIA/EAST TENNESSEE...

CITY           SKY/WX    TMP DP  RH WIND       PRES   REMARKS
WISE*          SUNNY     61  45  55 SW7       30.09F
JONESVILLE*    SUNNY     63  45  51 SW7       30.10F
ABINGDON*      SUNNY     61  46  57 W9        30.09S
BRISTOL        MOSUNNY   61  46  57 SW6       30.09F
KNOXVILLE      SUNNY     64  43  46 SW3       30.08F
OAK RIDGE      SUNNY     66  46  48 VRB3      30.10F
CROSSVILLE     PTSUNNY   68  46  45 W7        30.10F
NASHVILLE      MOSUNNY   74  57  55 W7        30.07F
$$

...KEY TO REMARKS...
VSB - VISIBILITY IN MILES
WCI - WIND CHILL INDEX
HX  - HEAT INDEX

$$



USA.gov is the U.S. government's official web portal to all federal, state and local government web resources and services.